Change the Weather History Date:

Thursday, June 27, 2013

  Actual Average Record
Temperature  
Mean Temperature 69 °F 63 °F  
Max Temperature 85 °F 77 °F 101 °F (1936)
Min Temperature 52 °F 48 °F 37 °F (1951)
Degree Days  
Heating Degree Days 0 4  
Month to date heating degree days 165 179  
Since 1 June heating degree days 165 179  
Since 1 July heating degree days 7015 7714  
Cooling Degree Days 4 2  
Month to date cooling degree days 9 27  
Year to date cooling degree days 12 34  
Since 1 June cooling degree days 9 27  
Growing Degree Days 18 (Base 50)    
Moisture  
Dew Point 46 °F    
Average Humidity 52    
Maximum Humidity 77    
Minimum Humidity 26    
Precipitation  
Precipitation 0.00 in 0.07 in 1.03 in (1944)
Month to date precipitation 2.36 2.35  
Year to date precipitation 7.44 8.08  
Snow  
Snow 0.00 in 0.00 in T in (1993)
Month to date snowfall 0.0 0.3  
Since 1 June snowfall 0.0 0.3  
Since 1 July snowfall 76.2 63.5  
Snow Depth 0.00 in    
Sea Level Pressure  
Sea Level Pressure 30.10 in    
Wind  
Wind Speed 9 mph (WSW)    
Max Wind Speed 17 mph    
Max Gust Speed 23 mph    
Visibility 10 miles    
Events      
T = Trace of Precipitation, MM = Missing Value Source: NWS Daily Summary

Daily Weather History Graph

Daily Weather History Graph

Search for Another Location

Airport or City:

Trip Planner

Search our weather history database for the weather conditions in past years. The results will help you decide how hot, cold, wet, or windy it might be!

Date:

Astronomy

Jun. 27, 2013 Rise Set
Actual Time 5:30 AM MDT 9:26 PM MDT
Civil Twilight 4:50 AM MDT 10:07 PM MDT
Nautical Twilight 3:54 AM MDT 11:02 PM MDT
Astronomical Twilight 2:27 AM MDT 12:29 AM MDT
Moon No Moon Rise 10:58 AM MDT
Length of Visible Light 17h 17m
Length of Day
15h 56m
Waning Gibbous, 76% of the Moon is Illuminated
Jun 27
Waning Gibbous
Jun 29
Last Quarter
Jul 8
New
Jul 15
First Quarter
Jul 22
Full

Hourly Weather History & Observations

Time (MDT) Temp. Heat Index Dew Point Humidity Pressure Visibility Wind Dir Wind Speed Gust Speed Precip Events Conditions
12:53 AM 55.0 °F - 44.1 °F 67% 30.04 in 10.0 mi SW 10.4 mph - N/A   Clear
1:53 AM 52.0 °F - 44.1 °F 74% 30.05 in 10.0 mi WSW 5.8 mph - N/A   Clear
2:53 AM 53.1 °F - 45.0 °F 74% 30.06 in 10.0 mi SW 6.9 mph - N/A   Clear
3:53 AM 57.0 °F - 45.0 °F 64% 30.06 in 10.0 mi SW 11.5 mph - N/A   Partly Cloudy
4:53 AM 57.9 °F - 45.0 °F 62% 30.06 in 10.0 mi SW 10.4 mph - N/A   Overcast
5:53 AM 57.9 °F - 45.0 °F 62% 30.07 in 10.0 mi SW 12.7 mph - N/A   Mostly Cloudy
6:53 AM 60.1 °F - 46.0 °F 60% 30.09 in 10.0 mi SW 12.7 mph - N/A   Clear
7:53 AM 63.0 °F - 45.0 °F 52% 30.12 in 10.0 mi NNW 10.4 mph 17.3 mph N/A   Clear
8:53 AM 64.9 °F - 46.0 °F 50% 30.14 in 10.0 mi West 4.6 mph - N/A   Clear
9:53 AM 68.0 °F - 46.9 °F 47% 30.14 in 10.0 mi WSW 12.7 mph - N/A   Clear
10:53 AM 71.1 °F - 46.0 °F 41% 30.14 in 10.0 mi WSW 10.4 mph - N/A   Clear
11:53 AM 73.9 °F - 48.0 °F 40% 30.14 in 10.0 mi SSW 8.1 mph - N/A   Clear
12:53 PM 78.1 °F - 45.0 °F 31% 30.12 in 10.0 mi West 11.5 mph 21.9 mph N/A   Clear
1:53 PM 79.0 °F - 46.9 °F 32% 30.12 in 10.0 mi WNW 9.2 mph - N/A   Clear
2:53 PM 78.1 °F - 45.0 °F 31% 30.11 in 10.0 mi Calm Calm - N/A   Clear
3:53 PM 82.9 °F - 45.0 °F 26% 30.09 in 10.0 mi West 10.4 mph 16.1 mph N/A   Clear
4:53 PM 84.0 °F - 46.0 °F 26% 30.08 in 10.0 mi WSW 8.1 mph - N/A   Clear
5:53 PM 84.0 °F - 46.0 °F 26% 30.08 in 10.0 mi WSW 9.2 mph 21.9 mph N/A   Partly Cloudy
6:53 PM 82.0 °F - 45.0 °F 27% 30.08 in 10.0 mi WSW 10.4 mph - N/A   Clear
7:53 PM 81.0 °F 80.4 °F 53.1 °F 38% 30.09 in 10.0 mi West 3.5 mph - N/A   Clear
8:53 PM 75.9 °F - 48.9 °F 38% 30.11 in 10.0 mi NE 9.2 mph - N/A   Clear
9:53 PM 70.0 °F - 46.0 °F 42% 30.15 in 10.0 mi NE 9.2 mph - N/A   Clear
10:53 PM 68.0 °F - 46.9 °F 47% 30.17 in 10.0 mi East 8.1 mph - N/A   Clear
11:53 PM 64.9 °F - 48.0 °F 54% 30.18 in 10.0 mi ESE 4.6 mph - N/A   Clear